ATLAS 2AS CENTAUR R/B

Satellite information

Favourite Embed

Satellite Type and Status

ROCKET BODYIN ORBIT

Key statistics

Satellite ATLAS 2AS CENTAUR R/B at a glance.

Uptime

9397

Days in orbit

Revolutions

≈ 9.0

Per day

Orbit

MEO

Medium Earth Orbit

Inclination

18.1

Latest

Satellite identification and parameters

Extended collection of information and parameters for ATLAS 2AS CENTAUR R/B.

Object identification

Identified? True

Debris? False

Object name: ATLAS 2AS CENTAUR R/B

International designator: 2000-007B

Object number (NORAD): 26072

Object ID (CCSDS): 26072

Country: UNITED STATES OF AMERICA (US)

Current information (Y/N): Y

RCS size: LARGE

Orbital parameters

Period: 159.745 minutes

Inclination: 18.0728 deg

SMA: 9752.417 km

Apoapsis: 6497.329 km

Periapsis: 251.235 km

RAAN: 136.9167 deg

Eccentricy: 0.32023312

Argument of periapsis: 183.4522 deg

Mean anomaly: 173.7014 deg

Mean motion: 9.0143492 rev/day

Mean motion (dot): 0.00056049 rev/day2

B* drag term: 0.0016067325 1/REarth

Two-line elements (TLE)

Creation date: Oct. 26, 2025, 2:54 a.m.

Reference frame: TEME

Reference center: EARTH

Epoch: Oct. 25, 2025, 8:50 p.m. UTC

TLE line 0: 0 ATLAS 2AS CENTAUR R/B

TLE line 1: 1 26072U 00007B 25298.86865580 .00056049 00000-0 16067-2 0 9992

TLE line 2: 2 26072 18.0728 136.9167 3202331 183.4522 173.7014 9.01434920335081

Live tracking on map

Real-time ground track for satellite ATLAS 2AS CENTAUR R/B.

In-orbit conjunctions

There are no conjunctions computed for ATLAS 2AS CENTAUR R/B, at the moment. Check back to stay up to date, as we update our databases every day.

Go to all conjunctions

Associated space launch

Hispasat 1C and 1D are powerful telecommunications satellite based on a Spacebus-3000B2 platform with 28 Ku-band channels built by Alcatel Space for the Spanish company HISPASAT S.A. They offer pan-European and pan-American multi-area coverage. This coverage can extend to certain areas of North Africa. The flexibility offered by the satellite's design will allow users to benefit from intercontinental links between Europe and the Americas.

ATLAS 2AS CENTAUR R/B was lifted into orbit during the mission ‘Atlas IIAS | Hispasat 1C’, on board a Atlas IIAS space rocket.

The launch took place on Feb. 3, 2000, 11:30 p.m. from Launch Complex 36B.

For more information about the launch, click the button.

Launch to space Atlas IIAS | Hispasat 1C
Atlas IIAS | Hispasat 1C

Agency: N/A

Status: Launch Successful

Launch date: Feb. 3, 2000, 11:30 p.m. UTC

Rocket: Atlas IIAS

Launch pad: Launch Complex 36B

Location: Cape Canaveral SFS, FL, USA

...

Latest news about this satellite

There are no fresh news available about this satellite. Check back as we update our databases every day.


Newsletter sign-up

Weekly statistics, charts and insights to help you stay on top of the space industry.